Tavèrnoles





Hora UTC 21:55
Temperatura 6.7 ºC
Humitat 95.0 %
Pressió 1022.9 hPa
Pluja 0.2 mm
Velocitat vent 0.0 km/h
Direcció vent NE
Radiació solar 0.0 W/m²

Dades diàries 2020-01-29



Hora UTC (hivern +1h; estiu +2h)
Temperatura (ºC) Humitat (%) Pressió (hPa) Velocitat vent (km/h) Precipitació (mm) Radiació solar (W/m²)
Hora UTC Aire Humitat Pressió Vel. Dir. Vel. Max Dir. Intent. màx 5 min. Rad. Sol.
00:05 1.4 95.0 1020.5 0.0 SSE 0.0 0.0 0.0
00:10 1.2 95.0 1020.4 0.0 SSE 3.2 0.0 0.0
00:15 1.2 95.0 1020.4 0.0 SSE 3.2 0.0 0.0
00:20 1.2 96.0 1020.4 0.0 SSE 0.0 0.0 0.0
00:25 1.2 96.0 1020.2 0.0 SSE 0.0 0.0 0.0
00:30 1.2 96.0 1020.3 0.0 SSE 1.6 0.0 0.0
00:35 1.3 96.0 1020.3 0.0 SSE 1.6 0.0 0.0
00:40 1.2 95.0 1020.3 0.0 SSE 4.8 0.0 0.0
00:45 1.2 96.0 1020.4 0.0 S 4.8 0.0 0.0
00:50 1.2 96.0 1020.4 0.0 S 0.0 0.0 0.0
00:55 1.1 96.0 1020.5 0.0 S 0.0 0.0 0.0
01:00 1.1 96.0 1020.5 0.0 S 0.0 0.0 0.0
01:05 1.1 96.0 1020.6 0.0 S 4.8 0.0 0.0
01:10 0.9 96.0 1020.4 0.0 SE 4.8 0.0 0.0
01:15 0.9 96.0 1020.4 0.0 SE 4.8 0.0 0.0
01:20 0.9 96.0 1020.4 0.0 SE 0.0 0.0 0.0
01:25 1.0 96.0 1020.5 0.0 SE 0.0 0.0 0.0
01:30 1.1 96.0 1020.4 0.0 SE 0.0 0.0 0.0
01:35 1.1 96.0 1020.3 0.0 SSE 3.2 0.0 0.0
01:40 1.1 96.0 1020.4 0.0 S 3.2 0.0 0.0
01:45 1.0 96.0 1020.1 0.0 SE 1.6 0.0 0.0
01:50 1.2 96.0 1020.4 0.0 S 1.6 0.0 0.0
01:55 1.2 96.0 1020.4 0.0 S 1.6 0.0 0.0
02:00 1.2 96.0 1020.3 0.0 S 0.0 0.0 0.0
02:05 1.2 96.0 1020.3 0.0 S 0.0 0.0 0.0
02:10 1.3 96.0 1020.4 0.0 S 0.0 0.0 0.0
02:15 1.3 96.0 1020.4 0.0 S 0.0 0.0 0.0
02:20 1.4 96.0 1020.3 0.0 S 0.0 0.0 0.0
02:25 1.4 96.0 1020.2 0.0 S 0.0 0.0 0.0
02:30 1.4 96.0 1020.1 0.0 S 0.0 0.0 0.0
02:35 1.4 96.0 1020.2 0.0 S 0.0 0.0 0.0
02:40 1.4 96.0 1020.1 0.0 S 0.0 0.0 0.0
02:45 1.6 96.0 1020.1 0.0 S 0.0 0.0 0.0
02:50 1.7 96.0 1020.3 0.0 S 0.0 0.0 0.0
02:55 1.8 96.0 1020.1 0.0 S 0.0 0.0 0.0
03:00 1.8 96.0 1020.2 0.0 S 0.0 0.0 0.0
03:05 1.9 96.0 1020.1 0.0 S 0.0 0.0 0.0
03:10 1.8 96.0 1020.1 0.0 S 0.0 0.0 0.0
03:15 1.8 96.0 1020.1 0.0 S 0.0 0.0 0.0
03:20 1.6 96.0 1020.4 0.0 S 0.0 0.0 0.0
03:25 1.7 96.0 1020.3 0.0 S 0.0 0.0 0.0
03:30 1.7 96.0 1020.1 1.6 S 1.6 0.0 0.0
03:35 1.7 96.0 1020.1 0.0 S 1.6 0.0 0.0
03:40 1.5 96.0 1020.1 0.0 S 1.6 0.0 0.0
03:45 1.3 96.0 1020.2 0.0 S 1.6 0.0 0.0
03:50 1.2 96.0 1020.3 0.0 S 0.0 0.0 0.0
03:55 1.2 96.0 1020.3 0.0 S 0.0 0.0 0.0
04:00 1.1 96.0 1020.3 0.0 S 0.0 0.0 0.0
04:05 1.0 96.0 1020.3 0.0 S 0.0 0.0 0.0
04:10 0.9 96.0 1020.3 0.0 S 0.0 0.0 0.0
04:15 0.8 96.0 1020.3 0.0 S 1.6 0.0 0.0
04:20 0.6 96.0 1020.5 0.0 S 3.2 0.0 0.0
04:25 0.4 96.0 1020.7 0.0 NE 0.0 0.0 0.0
04:30 0.6 96.0 1020.6 0.0 NE 1.6 0.0 0.0
04:35 0.7 96.0 1020.6 0.0 NE 1.6 0.0 0.0
04:40 0.7 96.0 1020.7 0.0 NE 0.0 0.0 0.0
04:45 0.7 96.0 1020.8 0.0 NE 0.0 0.0 0.0
04:50 0.8 96.0 1020.7 0.0 NE 0.0 0.0 0.0
04:55 0.8 96.0 1020.7 0.0 NE 0.0 0.0 0.0
05:00 0.8 96.0 1020.7 0.0 NE 0.0 0.0 0.0
05:05 0.8 96.0 1020.8 0.0 NE 0.0 0.0 0.0
05:10 0.8 96.0 1020.9 0.0 NE 0.0 0.0 0.0
05:15 0.8 96.0 1020.9 0.0 NE 0.0 0.0 0.0
05:20 0.9 96.0 1021.1 0.0 NE 0.0 0.0 0.0
05:25 1.0 96.0 1020.9 0.0 NE 0.0 0.0 0.0
05:30 1.1 96.0 1021.0 0.0 NE 0.0 0.0 0.0
05:35 1.1 96.0 1021.0 0.0 NE 0.0 0.0 0.0
05:40 1.1 96.0 1021.3 0.0 NE 0.0 0.0 0.0
05:45 1.2 96.0 1021.3 0.0 NE 0.0 0.0 0.0
05:50 1.2 96.0 1021.3 0.0 NE 0.0 0.0 0.0
05:55 1.2 97.0 1021.4 0.0 SE 0.0 0.0 0.0
06:00 1.3 97.0 1021.3 0.0 SE 0.0 0.0 0.0
06:05 1.3 97.0 1021.3 0.0 SSE 0.0 0.0 0.0
06:10 1.3 96.0 1021.2 0.0 SSW 1.6 0.0 0.0
06:15 1.3 96.0 1021.2 4.8 SSW 4.8 0.0 0.0
06:20 1.2 96.0 1021.3 3.2 SSW 4.8 0.0 0.0
06:25 1.1 96.0 1021.7 0.0 NNW 3.2 0.0 0.0
06:30 1.1 96.0 1021.8 0.0 N 6.4 0.0 0.0
06:35 1.2 96.0 1021.7 0.0 N 6.4 0.0 0.0
06:40 1.2 96.0 1021.6 0.0 N 0.0 0.0 0.0
06:45 1.3 97.0 1021.6 0.0 N 0.0 0.0 0.0
06:50 1.3 97.0 1021.8 0.0 N 0.0 0.0 0.0
06:55 1.3 97.0 1021.7 0.0 N 0.0 0.2 0.0
07:00 1.3 97.0 1021.8 0.0 N 0.0 0.0 0.0
07:05 1.3 97.0 1021.7 0.0 N 0.0 0.0 0.0
07:10 1.4 96.0 1021.8 0.0 N 0.0 0.0 0.0
07:15 1.4 96.0 1021.8 0.0 N 0.0 0.0 0.0
07:20 1.5 96.0 1021.9 0.0 N 0.0 0.0 5.0
07:25 1.6 96.0 1022.0 0.0 N 0.0 0.0 7.0
07:30 1.7 97.0 1022.1 0.0 N 0.0 0.0 12.0
07:35 1.8 97.0 1022.4 0.0 N 0.0 0.0 14.0
07:40 1.8 97.0 1022.5 0.0 N 0.0 0.0 14.0
07:45 1.9 97.0 1022.5 0.0 N 0.0 0.0 14.0
07:50 2.0 97.0 1022.6 0.0 N 0.0 0.0 16.0
07:55 2.1 97.0 1022.5 0.0 N 0.0 0.0 21.0
08:00 2.2 97.0 1022.7 0.0 N 0.0 0.0 16.0
08:05 2.3 97.0 1022.7 0.0 N 0.0 0.0 25.0
08:10 2.3 97.0 1022.8 0.0 N 0.0 0.0 28.0
08:15 2.4 97.0 1022.8 0.0 N 0.0 0.0 28.0
08:20 2.5 97.0 1022.7 0.0 N 3.2 0.0 51.0
08:25 2.7 97.0 1022.6 1.6 N 3.2 0.0 76.0
08:30 2.8 97.0 1022.7 0.0 N 1.6 0.0 83.0
08:35 2.9 97.0 1022.6 0.0 N 1.6 0.0 40.0
08:40 3.1 97.0 1022.6 0.0 N 0.0 0.0 33.0
08:45 3.1 97.0 1022.9 0.0 N 0.0 0.0 40.0
08:50 3.2 97.0 1023.0 0.0 N 0.0 0.0 62.0
08:55 3.2 97.0 1023.0 0.0 N 0.0 0.0 120.0
09:00 3.3 97.0 1023.0 0.0 N 0.0 0.0 83.0
09:05 3.5 97.0 1023.0 0.0 N 0.0 0.0 70.0
09:10 3.6 97.0 1023.0 0.0 N 0.0 0.0 120.0
09:15 3.6 97.0 1023.0 0.0 N 0.0 0.0 132.0
09:20 3.8 97.0 1023.0 0.0 N 0.0 0.0 137.0
09:25 3.8 97.0 1023.0 0.0 N 0.0 0.0 107.0
09:30 3.9 97.0 1023.1 0.0 N 0.0 0.0 69.0
09:35 4.1 97.0 1023.1 0.0 N 0.0 0.0 67.0
09:40 4.1 97.0 1023.2 0.0 N 0.0 0.0 67.0
09:45 4.1 97.0 1023.2 0.0 N 0.0 0.0 84.0
09:50 4.2 97.0 1023.2 0.0 N 0.0 0.0 72.0
09:55 4.2 97.0 1023.3 0.0 N 0.0 0.0 72.0
10:00 4.2 97.0 1023.3 0.0 N 0.0 0.0 102.0
10:05 4.3 97.0 1023.3 0.0 N 0.0 0.0 127.0
10:10 4.4 97.0 1023.3 0.0 N 0.0 0.0 127.0
10:15 4.4 97.0 1023.3 0.0 N 0.0 0.0 165.0
10:20 4.7 97.0 1023.2 0.0 N 0.0 0.0 91.0
10:25 4.8 97.0 1023.4 0.0 N 0.0 0.0 121.0
10:30 4.8 97.0 1023.4 0.0 N 0.0 0.0 127.0
10:35 4.8 97.0 1023.5 0.0 NW 3.2 0.0 139.0
10:40 4.9 97.0 1023.4 0.0 NW 3.2 0.0 118.0
10:45 4.9 97.0 1023.4 1.6 NW 3.2 0.0 114.0
10:50 5.0 97.0 1023.4 0.0 WNW 4.8 0.0 128.0
10:55 5.1 97.0 1023.4 0.0 WNW 4.8 0.0 149.0
11:00 5.1 97.0 1023.4 0.0 WNW 0.0 0.0 151.0
11:05 5.1 97.0 1023.4 0.0 WNW 0.0 0.0 121.0
11:10 5.1 97.0 1023.4 0.0 WNW 1.6 0.0 128.0
11:15 5.1 97.0 1023.3 0.0 WNW 1.6 0.0 123.0
11:20 5.1 97.0 1023.3 0.0 NW 0.0 0.0 160.0
11:25 5.1 97.0 1023.2 0.0 NW 0.0 0.0 188.0
11:30 5.1 97.0 1023.2 0.0 NW 0.0 0.0 192.0
11:35 5.2 97.0 1023.1 0.0 NW 3.2 0.0 135.0
11:40 5.1 97.0 1022.9 0.0 NW 3.2 0.0 127.0
11:45 5.2 97.0 1022.9 1.6 NW 1.6 0.0 135.0
11:50 5.2 97.0 1022.9 0.0 NW 1.6 0.0 162.0
11:55 5.2 97.0 1022.8 0.0 NW 1.6 0.0 167.0
12:00 5.2 97.0 1022.8 0.0 NW 0.0 0.0 220.0
12:05 5.3 97.0 1022.7 0.0 NNW 0.0 0.0 276.0
12:10 5.5 97.0 1022.6 0.0 NNW 0.0 0.0 267.0
12:10 5.5 97.0 1022.6 0.0 N 0.0 0.0 272.0
12:20 5.5 97.0 1022.5 0.0 NW 1.6 0.0 244.0
12:25 5.6 96.0 1022.4 0.0 NNW 0.0 0.0 404.0
12:30 5.8 97.0 1022.4 0.0 N 0.0 0.0 279.0
12:35 5.9 97.0 1022.4 4.8 N 6.4 0.0 283.0
12:40 5.9 96.0 1022.3 1.6 NW 6.4 0.0 255.0
12:45 6.0 96.0 1022.2 1.6 NW 4.8 0.0 397.0
12:50 6.1 96.0 1022.1 1.6 NW 6.4 0.0 334.0
12:55 6.3 96.0 1022.0 0.0 WNW 6.4 0.0 373.0
13:00 6.5 96.0 1022.0 1.6 N 4.8 0.0 359.0
13:05 6.7 96.0 1022.0 0.0 NW 4.8 0.0 343.0
13:10 6.9 96.0 1021.9 0.0 N 4.8 0.0 343.0
13:10 6.9 95.0 1021.8 1.6 N 4.8 0.0 383.0
13:20 7.3 94.0 1021.6 6.4 NNW 6.4 0.0 410.0
13:25 7.6 93.0 1021.5 4.8 N 6.4 0.0 387.0
13:30 7.9 92.0 1021.5 3.2 N 6.4 0.0 404.0
13:35 8.3 91.0 1021.3 1.6 NW 6.4 0.0 408.0
13:40 8.5 90.0 1021.5 0.0 NW 4.8 0.0 380.0
13:45 8.7 90.0 1021.5 1.6 WNW 4.8 0.0 392.0
13:50 8.9 89.0 1021.4 0.0 WNW 4.8 0.0 346.0
13:55 9.1 88.0 1021.2 0.0 WNW 4.8 0.0 341.0
14:00 9.2 87.0 1021.1 0.0 NW 3.2 0.0 346.0
14:05 9.4 88.0 1021.1 0.0 NW 3.2 0.0 329.0
14:10 9.7 87.0 1021.1 0.0 WNW 3.2 0.0 339.0
14:10 9.7 87.0 1021.1 0.0 WNW 3.2 0.0 359.0
14:20 9.9 84.0 1020.9 3.2 NNW 6.4 0.0 343.0
14:25 9.9 82.0 1021.0 3.2 NW 6.4 0.0 322.0
14:30 9.9 82.0 1020.8 0.0 NW 6.4 0.0 350.0
14:35 10.1 81.0 1020.9 0.0 NNW 3.2 0.0 239.0
14:40 10.3 79.0 1020.8 3.2 NNW 4.8 0.0 236.0
14:45 10.3 76.0 1020.8 0.0 NNW 4.8 0.0 162.0
14:50 10.4 80.0 1020.7 0.0 NNW 4.8 0.0 236.0
14:55 10.7 79.0 1020.7 0.0 NNW 0.0 0.0 167.0
15:00 10.9 80.0 1020.8 0.0 NNW 0.0 0.0 209.0
15:05 11.2 79.0 1020.9 0.0 NNW 0.0 0.0 269.0
15:10 11.4 77.0 1020.9 1.6 WSW 3.2 0.0 236.0
15:10 11.4 77.0 1020.8 0.0 WSW 3.2 0.0 239.0
15:20 11.9 75.0 1021.1 0.0 WSW 3.2 0.0 225.0
15:25 12.1 77.0 1020.9 0.0 WSW 1.6 0.0 258.0
15:30 12.3 73.0 1020.9 0.0 WSW 1.6 0.0 188.0
15:35 12.4 73.0 1021.0 0.0 WSW 1.6 0.0 216.0
15:40 12.3 73.0 1021.0 0.0 NW 3.2 0.0 216.0
15:45 12.3 75.0 1021.1 0.0 NW 3.2 0.0 181.0
15:50 12.2 74.0 1021.2 0.0 NW 3.2 0.0 139.0
15:55 12.0 76.0 1021.2 0.0 NW 1.6 0.0 134.0
16:00 11.8 77.0 1021.2 0.0 NW 1.6 0.0 113.0
16:05 11.7 78.0 1021.2 0.0 NW 1.6 0.0 88.0
16:10 11.7 77.0 1021.3 0.0 NW 1.6 0.0 70.0
16:10 11.7 77.0 1021.3 0.0 NW 1.6 0.0 67.0
16:20 11.3 77.0 1021.3 0.0 NW 1.6 0.0 35.0
16:25 11.2 78.0 1021.3 0.0 NW 0.0 0.0 28.0
16:30 11.0 81.0 1021.3 0.0 NW 0.0 0.0 25.0
16:35 10.8 81.0 1021.4 0.0 NW 0.0 0.0 23.0
16:40 10.5 82.0 1021.5 0.0 NW 0.0 0.0 21.0
16:45 10.2 83.0 1021.6 0.0 NW 0.0 0.0 21.0
16:50 9.8 83.0 1021.6 0.0 NW 0.0 0.0 14.0
16:55 9.4 83.0 1021.7 0.0 NW 0.0 0.0 9.0
17:00 9.1 84.0 1021.6 0.0 NW 0.0 0.0 5.0
17:05 8.8 84.0 1021.7 0.0 NW 0.0 0.0 0.0
17:10 8.3 85.0 1021.8 0.0 WSW 0.0 0.0 0.0
17:10 8.2 85.0 1021.9 0.0 WSW 1.6 0.0 0.0
17:20 7.6 87.0 1022.0 0.0 WSW 1.6 0.0 0.0
17:25 7.3 87.0 1022.0 0.0 SW 4.8 0.0 0.0
17:30 7.1 88.0 1022.2 0.0 SSE 4.8 0.0 0.0
17:35 6.8 88.0 1022.2 0.0 SSE 3.2 0.0 0.0
17:40 6.6 89.0 1022.2 0.0 SSE 1.6 0.0 0.0
17:45 6.4 90.0 1022.1 0.0 SSE 3.2 0.0 0.0
17:50 6.3 90.0 1022.1 0.0 SSE 3.2 0.0 0.0
17:55 6.3 91.0 1022.2 0.0 S 4.8 0.0 0.0
18:00 6.3 91.0 1022.1 0.0 S 4.8 0.0 0.0
18:05 6.2 90.0 1022.0 0.0 S 1.6 0.0 0.0
18:10 6.1 91.0 1022.1 0.0 S 1.6 0.0 0.0
18:10 6.1 90.0 1022.1 0.0 S 1.6 0.0 0.0
18:20 5.7 90.0 1022.1 0.0 S 1.6 0.0 0.0
18:25 5.6 91.0 1022.0 1.6 S 1.6 0.0 0.0
18:30 5.4 91.0 1022.0 0.0 S 3.2 0.0 0.0
18:35 5.3 92.0 1022.1 1.6 S 4.8 0.0 0.0
18:40 5.3 92.0 1022.1 0.0 S 4.8 0.0 0.0
18:45 5.2 92.0 1022.2 0.0 S 4.8 0.0 0.0
18:50 5.1 92.0 1022.3 1.6 S 4.8 0.0 0.0
18:55 4.9 92.0 1022.5 0.0 S 1.6 0.0 0.0
19:00 4.9 93.0 1022.6 0.0 S 1.6 0.0 0.0
19:05 4.8 92.0 1022.7 0.0 S 0.0 0.0 0.0
19:10 4.7 92.0 1022.7 0.0 S 1.6 0.0 0.0
19:10 4.6 93.0 1022.7 1.6 S 3.2 0.0 0.0
19:20 4.6 93.0 1022.7 0.0 S 3.2 0.0 0.0
19:25 4.6 93.0 1022.7 0.0 S 3.2 0.0 0.0
19:30 4.6 93.0 1022.7 0.0 S 1.6 0.0 0.0
19:35 4.3 93.0 1022.8 0.0 S 0.0 0.0 0.0
19:40 4.3 94.0 1023.0 0.0 S 0.0 0.0 0.0
19:45 4.4 94.0 1023.0 0.0 S 0.0 0.0 0.0
19:50 4.4 94.0 1023.0 3.2 S 3.2 0.0 0.0
19:55 4.6 94.0 1022.9 0.0 S 3.2 0.0 0.0
20:00 4.7 95.0 1023.0 0.0 S 3.2 0.0 0.0
20:05 4.8 95.0 1023.1 1.6 S 3.2 0.0 0.0
20:10 4.9 95.0 1023.0 0.0 S 3.2 0.0 0.0
20:10 4.9 95.0 1023.1 0.0 S 3.2 0.0 0.0
20:20 5.1 95.0 1023.1 0.0 S 0.0 0.0 0.0
20:25 5.2 95.0 1023.2 0.0 S 0.0 0.0 0.0
20:30 5.3 95.0 1023.2 1.6 S 3.2 0.0 0.0
20:35 5.5 95.0 1023.2 0.0 S 3.2 0.0 0.0
20:40 5.6 95.0 1023.1 0.0 S 1.6 0.0 0.0
20:45 5.8 95.0 1023.0 0.0 S 0.0 0.0 0.0
20:50 5.8 95.0 1023.1 0.0 S 0.0 0.0 0.0
20:55 5.9 95.0 1023.0 0.0 S 0.0 0.0 0.0
21:00 6.1 95.0 1022.9 0.0 S 0.0 0.0 0.0
21:05 6.2 95.0 1023.0 0.0 S 3.2 0.0 0.0
21:10 6.2 95.0 1023.1 0.0 S 3.2 0.0 0.0
21:10 6.3 95.0 1023.1 0.0 S 3.2 0.0 0.0
21:20 6.4 95.0 1023.0 0.0 NE 4.8 0.0 0.0
21:25 6.4 95.0 1022.9 0.0 NE 1.6 0.0 0.0
21:30 6.5 95.0 1022.8 0.0 NE 1.6 0.0 0.0
21:35 6.5 95.0 1022.9 0.0 NE 0.0 0.0 0.0
21:40 6.6 95.0 1022.8 0.0 NE 0.0 0.0 0.0
21:45 6.6 95.0 1022.9 0.0 NE 0.0 0.0 0.0
21:50 6.6 95.0 1022.9 0.0 NE 0.0 0.0 0.0
21:55 6.7 95.0 1022.9 0.0 NE 0.0 0.0 0.0
Màxima 12.4 97.0 1023.5 6.4 NNW 6.4 0.2 410.0
Mínima 0.4 73.0 1020.1
Total 0.2